DW7875 North Beach MD US current weather conditions

sailwx.info

Wind from 291 at 2 knots gusting 7

Air temperature 12.2° C
Dewpoint -4.8° C

Last reported at 2019-Dec-06 18:01 UTC.
Time now 2019-Dec-06 18:41 UTC

Location: N 38°43' W 076°32'.
View on Google Maps.

See reports from other nearby stations

  
Tides and Currents Weather Stations Pressure Air Temp Water Temp Dewpoint Dewpoint Depression Visibility Wind Speed Wind Dir Waves Ship Positions
date/time (UTC)wind fromknots sea level pressurealtimeterstation pressurevisibilityair tempwater tempwave heightnotes
2019-Dec-06 18:01 291 2 gusting 7 12.2
2019-Dec-06 17:45 239 3 gusting 7 12.2
2019-Dec-06 17:31 272 4 gusting 8 11.7
2019-Dec-06 17:17 278 2 gusting 7 11.7
2019-Dec-06 17:00 264 2 gusting 7 11.1
2019-Dec-06 16:45 240 2 gusting 7 11.1
2019-Dec-06 16:31 303 1 gusting 8 10.6
2019-Dec-06 16:15 264 0 gusting 6 10.0
2019-Dec-06 16:01 242 2 gusting 6 10.0
2019-Dec-06 15:45 135 0 gusting 4 10.0
2019-Dec-06 15:30 213 2 gusting 9 9.4
2019-Dec-06 15:15 091 3 gusting 6 8.9
2019-Dec-06 15:00 205 0 gusting 6 8.9
2019-Dec-06 14:46 146 1 gusting 3 7.8
2019-Dec-06 14:32 098 1 gusting 5 7.2
2019-Dec-06 14:17 143 2 gusting 5 6.7
2019-Dec-06 14:01 154 2 gusting 6 6.7
2019-Dec-06 13:46 195 0 gusting 6 7.8
2019-Dec-06 13:31 176 0 gusting 3 6.1
2019-Dec-06 13:16 268 5.0
2019-Dec-06 13:01 247 1 gusting 4 3.9
2019-Dec-06 12:46 239 1 gusting 3 3.3
2019-Dec-06 12:31 253 2.8
2019-Dec-06 12:16 254 1 gusting 4 2.2
2019-Dec-06 12:01 250 1 gusting 3 1.7
2019-Dec-06 11:46 271 1 gusting 3 1.7
2019-Dec-06 11:31 257 1 gusting 4 1.7
2019-Dec-06 11:16 275 0 gusting 2 1.1
2019-Dec-06 11:00 291 0 gusting 2 0.6
2019-Dec-06 10:46 295 0.6
2019-Dec-06 10:31 276 0 gusting 1 0.6
2019-Dec-06 10:15 276 0.6
2019-Dec-06 10:00 276 0 gusting 1 1.1
2019-Dec-06 09:46 274 1.1
2019-Dec-06 09:30 272 0 gusting 3 1.1
2019-Dec-06 09:15 292 1 gusting 2 1.7
2019-Dec-06 09:00 276 1 gusting 3 1.7
2019-Dec-06 08:45 278 1 gusting 3 1.7
2019-Dec-06 08:30 287 1 gusting 4 2.2
2019-Dec-06 08:16 272 1 gusting 3 2.2
2019-Dec-06 08:00 270 0 gusting 2 2.2
2019-Dec-06 07:45 278 0 gusting 2 2.2
2019-Dec-06 07:30 297 0 gusting 2 1.7
2019-Dec-06 07:15 297 0 gusting 2 1.7
2019-Dec-06 07:00 297 0 gusting 2 1.1
2019-Dec-06 06:45 305 0 gusting 1 1.1
2019-Dec-06 06:30 305 0 gusting 2 1.1
2019-Dec-06 06:15 305 1.1
2019-Dec-06 06:01 305 1.1
2019-Dec-06 05:47 305 0 gusting 1 1.1
2019-Dec-06 05:32 305 0 gusting 1 1.1
2019-Dec-06 05:17 305 0.6
2019-Dec-06 05:01 305 0 gusting 2 0.6
2019-Dec-06 04:46 305 0.6
2019-Dec-06 04:31 305 0.6
2019-Dec-06 04:18 305 0 gusting 1 0.6
2019-Dec-06 04:01 305 0 gusting 1 0.6
2019-Dec-06 03:46 305 0.6
2019-Dec-06 03:31 305 -0.0
2019-Dec-06 03:16 305 0 gusting 1 -0.0
2019-Dec-06 03:00 305 0 gusting 1 -0.0
2019-Dec-06 02:46 305 -0.0
2019-Dec-06 02:31 305 -0.0
2019-Dec-06 02:15 305 -0.0
2019-Dec-06 02:00 305 0.6
2019-Dec-06 01:45 305 0 gusting 2 0.6
2019-Dec-06 01:30 305 1.1
2019-Dec-06 01:16 305 1.1
2019-Dec-06 01:00 305 1.7
2019-Dec-06 00:45 305 1.7
2019-Dec-06 00:30 305 2.2
2019-Dec-06 00:15 305 3.3
2019-Dec-06 00:00 305 3.9
2019-Dec-05 23:45 305 4.4
2019-Dec-05 23:30 302 4.4
2019-Dec-05 23:15 306 1 gusting 4 4.4
2019-Dec-05 23:00 308 0 gusting 4 4.4
2019-Dec-05 22:45 309 5.0
2019-Dec-05 22:31 309 0 gusting 3 5.6
2019-Dec-05 22:16 290 6.1
2019-Dec-05 22:01 312 0 gusting 5 6.1
2019-Dec-05 21:47 318 0 gusting 3 6.7
2019-Dec-05 21:31 088 0 gusting 5 7.2
2019-Dec-05 21:16 256 0 gusting 10 7.8
2019-Dec-05 21:01 305 2 gusting 10 7.8
2019-Dec-05 20:46 303 0 gusting 9 8.3
2019-Dec-05 20:31 309 0 gusting 6 8.9
2019-Dec-05 20:16 003 3 gusting 11 8.9
2019-Dec-05 20:01 290 3 gusting 8 8.3
2019-Dec-05 19:46 314 3 gusting 13 8.3
2019-Dec-05 19:31 353 2 gusting 9 8.3
2019-Dec-05 19:15 293 4 gusting 13 8.3
2019-Dec-05 19:01 279 2 gusting 8 8.3
2019-Dec-05 18:45 334 1 gusting 7 8.3
2019-Dec-05 18:31 302 4 gusting 9 7.2
2019-Dec-05 18:16 309 3 gusting 13 7.2
2019-Dec-05 18:00 289 3 gusting 8 7.2
2019-Dec-05 17:45 266 3 gusting 10 7.2
2019-Dec-05 17:31 326 5 gusting 11 7.2
2019-Dec-05 17:15 098 3 gusting 13 7.2
2019-Dec-05 17:00 312 4 gusting 14 7.2
2019-Dec-05 16:46 307 4 gusting 18 8.3
2019-Dec-05 16:30 341 7 gusting 14 8.3
2019-Dec-05 16:15 337 5 gusting 12 7.2
2019-Dec-05 16:00 321 5 gusting 10 6.7
2019-Dec-05 15:45 218 2 gusting 11 6.1
2019-Dec-05 15:30 305 3 gusting 10 6.1
2019-Dec-05 15:15 359 2 gusting 13 6.1
2019-Dec-05 15:00 291 1 gusting 10 6.7
2019-Dec-05 14:45 296 2 gusting 12 6.7
2019-Dec-05 14:30 297 4 gusting 10 6.7
2019-Dec-05 14:15 307 3 gusting 7 6.1
2019-Dec-05 14:00 323 3 gusting 6 6.1
2019-Dec-05 13:45 303 0 gusting 6 5.6
2019-Dec-05 13:33 271 0 gusting 4 5.0
2019-Dec-05 13:17 306 0 gusting 5 4.4
2019-Dec-05 13:02 264 2 gusting 4 4.4
2019-Dec-05 12:46 253 1 gusting 5 4.4
2019-Dec-05 12:32 301 2 gusting 6 4.4
2019-Dec-05 12:16 298 1 gusting 6 4.4
2019-Dec-05 12:01 321 0 gusting 6 4.4
2019-Dec-05 11:46 288 1 gusting 6 4.4
2019-Dec-05 11:30 272 2 gusting 6 4.4
2019-Dec-05 11:15 276 2 gusting 5 4.4
2019-Dec-05 11:01 288 2 gusting 5 4.4
2019-Dec-05 10:45 318 1 gusting 7 4.4
2019-Dec-05 10:30 329 1 gusting 6 4.4
2019-Dec-05 10:15 044 0 gusting 5 4.4
2019-Dec-05 10:00 316 1 gusting 8 3.9
2019-Dec-05 09:45 312 1 gusting 6 3.9
2019-Dec-05 09:30 286 0 gusting 5 3.9
2019-Dec-05 09:15 283 3.9
2019-Dec-05 09:00 301 1 gusting 7 4.4
2019-Dec-05 08:46 306 2 gusting 6 4.4
2019-Dec-05 08:30 278 0 gusting 3 4.4
2019-Dec-05 08:15 229 3 gusting 10 5.0
2019-Dec-05 08:00 243 1 gusting 7 5.0
2019-Dec-05 07:45 301 1 gusting 12 5.0
2019-Dec-05 07:31 327 1 gusting 5 5.0
2019-Dec-05 07:17 288 1 gusting 6 5.0
2019-Dec-05 07:02 245 0 gusting 4 4.4
2019-Dec-05 06:47 259 4.4
2019-Dec-05 06:31 257 0 gusting 4 5.0
2019-Dec-05 06:16 280 0 gusting 2 5.0
2019-Dec-05 06:03 259 0 gusting 2 5.0
2019-Dec-05 05:46 264 1 gusting 5 5.0
2019-Dec-05 05:31 290 0 gusting 3 4.4
2019-Dec-05 05:16 318 0 gusting 3 3.3
2019-Dec-05 05:01 338 2.8
2019-Dec-05 04:46 309 2.2
2019-Dec-05 04:31 309 2.2
2019-Dec-05 04:16 309 2.2
2019-Dec-05 04:02 308 2.2
2019-Dec-05 03:46 308 1.7
2019-Dec-05 03:31 308 1.7
2019-Dec-05 03:16 308 1.7
2019-Dec-05 03:01 308 0 gusting 1 2.2
2019-Dec-05 02:46 308 2.2
2019-Dec-05 02:31 308 2.2
2019-Dec-05 02:16 308 2.8
2019-Dec-05 02:01 308 2.8
2019-Dec-05 01:45 308 2.8
2019-Dec-05 01:31 308 3.3
2019-Dec-05 01:16 308 4.4
2019-Dec-05 01:01 308 5.0
2019-Dec-05 00:45 308 5.6
2019-Dec-05 00:30 318 5.6
2019-Dec-05 00:16 307 1 gusting 3 6.1
2019-Dec-05 00:00 304 0 gusting 5 5.6
2019-Dec-04 23:45 263 0 gusting 2 5.0
2019-Dec-04 23:30 321 0 gusting 1 5.6
2019-Dec-04 23:16 321 6.1
2019-Dec-04 23:00 321 6.7
2019-Dec-04 22:45 321 7.2
2019-Dec-04 22:30 321 7.8
2019-Dec-04 22:15 257 7.8
2019-Dec-04 22:01 257 0 gusting 3 8.3
2019-Dec-04 21:45 247 8.9
2019-Dec-04 21:30 246 8.9
2019-Dec-04 21:15 281 1 gusting 4 9.4
2019-Dec-04 21:00 274 1 gusting 6 9.4
2019-Dec-04 20:45 258 1 gusting 5 9.4
2019-Dec-04 20:31 308 1 gusting 6 9.4
2019-Dec-04 20:15 259 0 gusting 6 8.9
2019-Dec-04 20:00 271 2 gusting 6 8.9
2019-Dec-04 19:45 246 2 gusting 6 9.4
2019-Dec-04 19:30 247 0 gusting 5 9.4
2019-Dec-04 19:15 231 2 gusting 6 8.9
2019-Dec-04 19:00 247 3 gusting 6 8.9
2019-Dec-04 18:45 262 1 gusting 4 8.9
2019-Dec-04 18:30 165 1 gusting 6 8.9
2019-Dec-04 18:15 264 1 gusting 6 8.9
2019-Dec-04 18:02 231 0 gusting 6 8.3